Camden, AR

4:29 PM CDT on August 20, 2017 (GMT -0500)
Harrell

Weather History for KCDH - February, 2013

Change the Weather History Date:

Sunday, February 24, 2013

  Actual Average Record
Temperature  
Mean Temperature 47 °F -  
Max Temperature 66 °F 62 °F 84 °F (1982)
Min Temperature 28 °F 35 °F 20 °F (1989)
Degree Days  
Heating Degree Days 18    
Moisture  
Dew Point 30 °F    
Average Humidity 61    
Maximum Humidity 100    
Minimum Humidity 24    
Precipitation  
Precipitation 0.00 in - - ()
Sea Level Pressure  
Sea Level Pressure 29.96 in    
Wind  
Wind Speed 2 mph (East)    
Max Wind Speed 12 mph    
Max Gust Speed 18 mph    
Visibility 9 miles    
Events Rain    
Averages and records for this station are not official NWS values.
T = Trace of Precipitation, MM = Missing Value Source: NWS Daily Summary

Daily Weather History Graph

Daily Weather History Graph

Search for Another Location

Airport or City:

Trip Planner

Search our weather history database for the weather conditions in past years. The results will help you decide how hot, cold, wet, or windy it might be!

Date:

Astronomy

Feb. 24, 2013 Rise Set
Actual Time 6:45 AM CST 6:03 PM CST
Civil Twilight 6:19 AM CST 6:28 PM CST
Nautical Twilight 5:51 AM CST 6:57 PM CST
Astronomical Twilight 5:22 AM CST 7:26 PM CST
Moon 5:15 PM CST (2/24) 5:41 AM CST (2/24)
Length of Visible Light 12h 08m
Length of Day
11h 18m
Waxing Gibbous, 99% of the Moon is Illuminated
Feb 24
Waxing Gibbous
Feb 25
Full
Mar 4
Last Quarter
Mar 11
New
Mar 19
First Quarter

Hourly Weather History & Observations

Time (CST) Temp. Windchill Dew Point Humidity Pressure Visibility Wind Dir Wind Speed Gust Speed Precip Events Conditions
12:15 AM 32.0 °F - 32.0 °F 100% 30.01 in 8.0 mi Calm Calm - N/A   Clear
12:35 AM 32.0 °F - 30.2 °F 93% 30.01 in 7.0 mi Calm Calm - N/A   Clear
12:55 AM 32.0 °F - 32.0 °F 100% 30.02 in 9.0 mi Calm Calm - N/A   Clear
1:15 AM 32.0 °F - 30.2 °F 93% 30.02 in 4.0 mi Calm Calm - N/A   Clear
1:35 AM 32.0 °F - 28.4 °F 87% 30.02 in 8.0 mi Calm Calm - N/A   Clear
1:55 AM 32.0 °F - 28.4 °F 87% 30.01 in 8.0 mi Calm Calm - N/A   Clear
2:15 AM 30.2 °F - 28.4 °F 93% 30.01 in 7.0 mi Calm Calm - N/A   Clear
2:35 AM 30.2 °F - 28.4 °F 93% 30.01 in 3.0 mi Calm Calm - N/A   Clear
2:55 AM 30.2 °F - 28.4 °F 93% 30.01 in 9.0 mi Calm Calm - N/A   Clear
3:15 AM 28.4 °F - 28.4 °F 100% 30.01 in 6.0 mi Calm Calm - N/A   Clear
3:35 AM 28.4 °F - 28.4 °F 100% 30.02 in 1.8 mi Calm Calm - N/A   Clear
3:55 AM 28.4 °F - 28.4 °F 100% 30.02 in 4.0 mi Calm Calm - N/A   Clear
4:15 AM 28.4 °F - 26.6 °F 93% 30.02 in 1.5 mi Calm Calm - N/A   Clear
4:35 AM 28.4 °F - 26.6 °F 93% 30.02 in 5.0 mi Calm Calm - N/A   Clear
5:15 AM 28.4 °F - 26.6 °F 93% 30.04 in 5.0 mi Calm Calm - N/A   Clear
5:35 AM 28.4 °F - 26.6 °F 93% 30.04 in 7.0 mi Calm Calm - N/A   Clear
5:55 AM 28.4 °F - 26.6 °F 93% 30.03 in 7.0 mi Calm Calm - N/A   Clear
6:15 AM 28.4 °F - 26.6 °F 93% 30.04 in 5.0 mi Calm Calm - N/A   Clear
6:35 AM 28.4 °F - 26.6 °F 93% 30.04 in 5.0 mi Calm Calm - N/A   Clear
6:55 AM 28.4 °F - 26.6 °F 93% 30.04 in 8.0 mi Calm Calm - N/A   Clear
7:15 AM 28.4 °F - 26.6 °F 93% 30.04 in 4.0 mi Calm Calm - N/A   Clear
7:35 AM 30.2 °F - 28.4 °F 93% 30.05 in 5.0 mi Calm Calm - N/A   Clear
7:55 AM 32.0 °F - 30.2 °F 93% 30.04 in 7.0 mi Calm Calm - N/A   Clear
8:15 AM 35.6 °F - 32.0 °F 87% 30.05 in 7.0 mi Calm Calm - N/A Rain Light Rain
8:55 AM 41.0 °F 39.0 °F 33.8 °F 76% 30.06 in 10.0 mi ESE 3.5 mph - N/A   Clear
9:15 AM 44.6 °F 40.7 °F 32.0 °F 61% 30.06 in 10.0 mi East 6.9 mph - N/A   Clear
9:35 AM 46.4 °F 42.9 °F 30.2 °F 53% 30.06 in 10.0 mi East 6.9 mph - N/A   Clear
9:55 AM 48.2 °F - 28.4 °F 46% 30.06 in 10.0 mi ESE 8.1 mph - N/A   Clear
10:15 AM 51.8 °F - 26.6 °F 38% 30.06 in 10.0 mi East 6.9 mph - N/A   Clear
10:35 AM 53.6 °F - 26.6 °F 35% 30.05 in 10.0 mi East 4.6 mph - N/A   Clear
10:55 AM 55.4 °F - 26.6 °F 33% 30.05 in 10.0 mi East 5.8 mph - N/A   Clear
11:15 AM 57.2 °F - 26.6 °F 31% 30.04 in 10.0 mi East 8.1 mph - N/A   Clear
11:35 AM 57.2 °F - 26.6 °F 31% 30.03 in 10.0 mi ESE 5.8 mph 17.3 mph N/A   Clear
11:55 AM 59.0 °F - 26.6 °F 29% 30.02 in 10.0 mi East 4.6 mph - N/A   Clear
12:15 PM 60.8 °F - 26.6 °F 27% 30.01 in 10.0 mi ESE 5.8 mph - N/A   Clear
12:35 PM 62.6 °F - 26.6 °F 26% 29.99 in 10.0 mi East 6.9 mph - N/A   Clear
12:55 PM 62.6 °F - 28.4 °F 27% 29.97 in 10.0 mi SE 10.4 mph - N/A   Clear
1:15 PM 62.6 °F - 28.4 °F 27% 29.96 in 10.0 mi SE 5.8 mph - N/A   Clear
1:35 PM 64.4 °F - 28.4 °F 26% 29.96 in 10.0 mi ESE 4.6 mph - N/A   Clear
1:55 PM 64.4 °F - 28.4 °F 26% 29.95 in 10.0 mi East 5.8 mph - N/A   Clear
2:15 PM 66.2 °F - 28.4 °F 24% 29.95 in 10.0 mi ESE 6.9 mph - N/A   Clear
2:35 PM 66.2 °F - 30.2 °F 26% 29.93 in 10.0 mi ENE 8.1 mph - N/A   Clear
2:55 PM 64.4 °F - 30.2 °F 28% 29.92 in 10.0 mi East 5.8 mph - N/A   Clear
3:15 PM 64.4 °F - 30.2 °F 28% 29.90 in 10.0 mi East 6.9 mph - N/A   Clear
3:35 PM 64.4 °F - 30.2 °F 28% 29.90 in 10.0 mi ESE 8.1 mph 18.4 mph N/A   Clear
3:55 PM 64.4 °F - 30.2 °F 28% 29.90 in 10.0 mi East 8.1 mph - N/A   Clear
4:15 PM 64.4 °F - 32.0 °F 30% 29.88 in 10.0 mi East 8.1 mph - N/A   Clear
4:35 PM 64.4 °F - 32.0 °F 30% 29.88 in 10.0 mi East 8.1 mph - N/A   Clear
4:55 PM 64.4 °F - 30.2 °F 28% 29.86 in 10.0 mi ENE 11.5 mph - N/A   Clear
5:15 PM 62.6 °F - 32.0 °F 32% 29.87 in 10.0 mi East 6.9 mph - N/A   Clear
5:35 PM 60.8 °F - 32.0 °F 34% 29.87 in 10.0 mi East 5.8 mph - N/A   Clear
5:55 PM 59.0 °F - 32.0 °F 36% 29.87 in 10.0 mi ENE 6.9 mph - N/A   Clear
6:15 PM 57.2 °F - 32.0 °F 38% 29.87 in 10.0 mi ENE 5.8 mph - N/A   Clear
6:35 PM 55.4 °F - 32.0 °F 41% 29.88 in 10.0 mi ENE 6.9 mph - N/A   Clear
6:55 PM 53.6 °F - 32.0 °F 44% 29.88 in 10.0 mi ENE 5.8 mph - N/A   Clear
7:15 PM 53.6 °F - 33.8 °F 47% 29.88 in 10.0 mi ENE 6.9 mph - N/A   Clear
7:35 PM 51.8 °F - 33.8 °F 50% 29.87 in 10.0 mi ENE 8.1 mph - N/A   Clear
7:55 PM 50.0 °F - 33.8 °F 54% 29.88 in 10.0 mi ENE 4.6 mph - N/A   Clear
8:15 PM 50.0 °F - 33.8 °F 54% 29.88 in 10.0 mi East 4.6 mph - N/A   Clear
8:35 PM 50.0 °F - 33.8 °F 54% 29.87 in 10.0 mi Calm Calm - N/A   Clear
8:55 PM 48.2 °F - 33.8 °F 58% 29.85 in 10.0 mi ENE 4.6 mph - N/A   Clear
9:15 PM 48.2 °F - 33.8 °F 58% 29.86 in 10.0 mi NNE 3.5 mph - N/A   Clear
9:35 PM 46.4 °F 44.3 °F 33.8 °F 62% 29.86 in 10.0 mi NNE 4.6 mph - N/A   Clear
9:55 PM 46.4 °F 44.3 °F 35.6 °F 66% 29.85 in 10.0 mi NNE 4.6 mph - N/A   Clear
10:15 PM 44.6 °F - 35.6 °F 71% 29.85 in 10.0 mi Calm Calm - N/A   Clear
10:35 PM 46.4 °F - 35.6 °F 66% 29.85 in 10.0 mi Calm Calm - N/A   Clear
10:55 PM 46.4 °F - 35.6 °F 66% 29.84 in 10.0 mi Calm Calm - N/A   Clear
11:15 PM 42.8 °F 41.1 °F 35.6 °F 76% 29.82 in 10.0 mi ENE 3.5 mph - N/A   Clear
11:35 PM 42.8 °F 41.1 °F 35.6 °F 76% 29.81 in 10.0 mi East 3.5 mph - N/A   Clear
11:55 PM 42.8 °F 39.3 °F 35.6 °F 76% 29.81 in 10.0 mi NNE 5.8 mph - N/A   Clear